#timestamp,LO_Frequency,Hit 
1501063215.3,286046993.6,N
1501063235.1,286046993.5,N
1501063255.9,286046993.5,N
1501063275.7,286046998.0,N
1501063295.5,286046993.3,N
1501063315.4,286046993.9,N
1501063335.2,286046993.5,N
1501063355.0,286046997.4,N
1501063355.9,286046997.4,N
1501063375.8,286046995.2,N
1501063395.6,286046995.7,N
1501063415.4,286046994.6,N
1501063435.3,286046992.5,N
1501063455.1,286046991.8,N
1501063456.0,286046991.8,N
1501063475.8,286046997.1,N
1501063495.6,286046993.9,N
1501063515.5,286046997.3,N
1501063535.3,286046995.1,N
1501063555.1,286046994.8,N
1501063575.9,286046992.5,N
1501063595.7,286046997.5,N
1501063615.5,286046997.5,N
1501063635.4,286046997.9,N
1501063655.2,286046997.3,N
1501063675.0,286046995.0,N
1501063675.9,286046995.0,N
1501063695.8,286047001.0,N
1501063715.6,286047000.6,N
1501063735.4,286047000.7,N
1501063755.2,286046999.8,N
1501063775.1,286046996.7,N
1501063776.0,286046996.7,N
1501063795.8,286046999.2,N
1501063815.6,286046996.7,N
1501063835.5,286046995.2,N
1501063855.3,286046998.4,N
1501063875.1,286047000.5,N
1501063895.9,286046998.3,N
1501063915.7,286046998.2,N
1501063935.5,286046998.2,N
1501063955.4,286047001.9,N
1501063975.2,286046998.2,N
1501063995.0,286046999.5,N
1501063995.9,286046999.5,N
1501064015.9,286046997.2,N
1501064035.7,286047001.1,N
1501064055.5,286046999.2,N
1501064075.4,286047000.8,N
1501064095.2,286047004.4,N
1501064115.0,286047002.5,N
1501064115.9,286047002.5,N
1501064135.7,286047000.5,N
1501064155.6,286046998.9,N
1501064175.4,286046998.9,N
1501064195.2,286046999.3,N
1501064215.1,286046999.5,N
1501064216.0,286046999.5,N
1501064235.8,286047000.8,N
1501064255.6,286046999.9,N
1501064275.5,286047000.7,N
1501064295.3,286046999.4,N
1501064315.1,286046997.2,N
1501064335.9,286046999.5,N
1501064355.7,286046995.3,N
1501064375.5,286046997.7,N
1501064395.4,286047002.4,N
1501064415.2,286047001.7,N
1501064435.0,286047002.2,N
1501064435.9,286047002.2,N
1501064455.8,286046997.0,N
1501064475.6,286046996.5,N
1501064495.4,286046993.3,N
1501064515.2,286046994.1,N
1501064535.1,286046995.9,N
1501064536.0,286046995.9,N
1501064555.8,286046995.1,N
1501064575.6,286046995.3,N
1501064595.5,286047001.1,N
1501064615.3,286046996.0,N
1501064635.1,286046993.9,N
1501064655.9,286046996.8,N
1501064675.7,286046995.2,N
1501064695.5,286046993.7,N
1501064715.4,286046998.0,N
1501064735.2,286046995.0,N
1501064755.0,286047001.2,N
1501064755.9,286047001.2,N
1501064775.8,286047000.6,N
1501064795.6,286047002.7,N
1501064815.4,286046996.5,N
1501064835.3,286046995.4,N
1501064855.1,286046998.2,N
1501064856.0,286046998.2,N
1501064875.8,286046999.8,N
1501064895.7,286046997.0,N
1501064915.5,286046995.0,N
1501064935.3,286046997.5,N
1501064955.1,286046997.6,N
1501064975.9,286046997.1,N
1501064995.7,286046999.3,N
1501065015.5,286046995.2,N
1501065035.4,286046995.0,N
1501065055.1,286046999.6,N
1501065075.9,286047001.9,N
1501065095.7,286046999.4,N
1501065115.5,286046997.0,N
1501065135.4,286046995.2,N
1501065155.2,286047000.8,N
1501065175.0,286047001.1,N
1501065175.9,286047001.1,N
1501065195.7,286046999.7,N
1501065215.6,286046999.4,N
1501065235.4,286047000.6,N
1501065255.2,286047002.4,N
1501065275.1,286047002.3,N
1501065276.0,286047002.3,N
1501065295.8,286046998.6,N
1501065315.6,286046999.8,N
1501065335.5,286047000.7,N
1501065355.4,286047004.1,N
1501065375.3,286047004.4,N
1501065395.1,286047006.0,N
1501065396.0,286047006.0,N
1501065415.8,286047001.3,N
1501065435.7,286047002.4,N
1501065455.5,286046998.5,N
1501065475.3,286046999.5,N
1501065495.2,286046997.4,N
1501065515.9,286047000.3,N
1501065535.7,286046998.6,N
1501065555.5,286046998.1,N
1501065575.4,286046998.0,N
1501065595.5,286046995.4,N
1501065615.3,286046996.7,N
1501065635.1,286046996.2,N
1501065655.9,286046996.0,N
1501065675.7,286046995.0,N
1501065695.5,286046995.6,N
1501065715.3,286046992.3,N
1501065735.2,286046992.0,N
1501065755.0,286046993.2,N
1501065755.9,286046993.2,N
1501065775.7,286046990.3,N
1501065795.6,286046992.5,N
1501065815.4,286046993.5,N
1501065835.2,286046998.0,N
1501065855.1,286046996.2,N
1501065856.0,286046996.2,N
1501065875.6,286046995.8,N
1501065895.4,286046993.7,N
1501065915.3,286046995.9,N
1501065935.1,286046996.0,N
1501065936.0,286046996.0,N
1501065955.8,286046996.3,N
1501065975.6,286046994.2,N
1501065995.5,286046990.9,N
1501066015.3,286046991.5,N
1501066035.1,286046993.0,N
1501066055.9,286046994.2,N
1501066075.7,286046994.0,N
1501066095.5,286046997.9,N
1501066115.4,286046996.2,N
1501066135.2,286046996.4,N
1501066155.0,286046993.8,N
1501066155.9,286046993.8,N
1501066175.8,286046994.0,N
1501066195.6,286046999.0,N
1501066215.4,286046999.8,N
1501066235.2,286046996.5,N
1501066255.1,286046998.4,N
1501066256.0,286046998.4,N
1501066275.8,286046998.2,N
1501066295.6,286047001.6,N
1501066315.5,286047001.0,N
1501066335.3,286047001.8,N
1501066355.1,286047002.3,N
1501066375.9,286047001.7,N
1501066395.7,286046998.2,N
1501066415.5,286047001.1,N
1501066435.4,286047000.2,N
1501066455.2,286047002.7,N
1501066475.0,286047002.1,N
1501066475.9,286047002.1,N
1501066495.8,286046998.6,N
1501066515.6,286046999.2,N
1501066535.4,286046999.1,N
1501066555.2,286046997.5,N
1501066575.1,286046994.7,N
1501066576.0,286046994.7,N
1501066595.8,286046997.7,N
1501066615.6,286046997.4,N
1501066635.5,286046999.5,N
1501066655.3,286047000.7,N
1501066675.1,286047000.2,N
1501066695.9,286047000.6,N
1501066715.7,286047003.1,N
1501066735.5,286047000.2,N
1501066755.4,286047003.1,N
1501066775.2,286047001.8,N
1501066795.0,286046999.7,N
1501066795.9,286046999.7,N
